Location: Aragnouet
(42.7874°N, 0.2165°E)
Time: 13:06:56
(UTC+00:00)

Cosmos 468 Rocket - Pass Details

Date: 09 April 2020
Orbit: 745 x 779 km, 74.0° (Epoch: 26 May)

Event Time Altitude Azimuth Distance (km) Brightness Sun altitude
Rises 20:34:20 0° 343° (NNW) 3,214 8.0 -20.9°
Reaches altitude 10° 20:36:46 10° 347° (NNW) 2,281 7.1 -21.3°
Maximum altitude 20:41:51 58° 67° (ENE) 874 4.0 -22.1°
Enters shadow 20:42:34 52° 101° (E) 923 4.0 -22.2°
